M I D A S
Marine Information and Data Acquisition System
Tripno 806 of the Zeeleeuw from 2004-11-18 10:02:50 to 2004-11-18 14:23:46
Back to CruiseResearch ActivitiesStationsMapUnderway DataData graphs

EquipmentUnitsComments
TimeDGPSUTC
LatitudeDGPSDM.mWGS84
LongitudeDGPSDM.mWGS84
SpeedMeteo Stationm/sRelative wind speed
DirectionMeteo StationdegRelative wind direction
TemperatureMeteo Stationdeg CelciusAir temperature
PressureMeteo StationPaAtmospheric pressure
HumidityMeteo Station%Relative humidity
Missing or incorrect values are displayed as -999
Metereological data collected by the RV Zeeleeuw from 2004-11-18 10:02:50 to 2004-11-18 14:23:46
Time Latitude Longitude Speed Direction Temperature Pressure Humidity
2004-11-18 10:04 51°22.591 3°13.13 7.1 274 8.9 101520 81
2004-11-18 10:05 51°22.591 3°13.102 8.5 280 8.9 101530 81
2004-11-18 10:06 51°22.589 3°13.074 8 280 8.9 101520 80
2004-11-18 10:07 51°22.591 3°13.049 6.7 283 8.9 101520 80
2004-11-18 10:08 51°22.608 3°13.035 9.3 287 9 101510 80
2004-11-18 10:09 51°22.62 3°13.027 7.1 266 9 101530 80
2004-11-18 10:10 51°22.628 3°13.008 10.3 272 8.9 101520 80
2004-11-18 10:11 51°22.631 3°12.991 8.1 264 8.9 101520 81
2004-11-18 10:12 51°22.631 3°12.968 9.2 266 8.8 101520 81
2004-11-18 10:14 51°22.631 3°12.939 10.7 264 8.8 101520 81
2004-11-18 10:15 51°22.63 3°12.914 9.5 264 8.7 101520 81
2004-11-18 10:16 51°22.628 3°12.893 13 266 8.6 101520 80
2004-11-18 10:17 51°22.632 3°12.874 9.8 282 8.5 101510 80
2004-11-18 10:18 51°22.691 3°12.798 9.3 15 8.5 101520 80
2004-11-18 10:19 51°22.718 3°12.574 13.8 12 8.5 101530 81
2004-11-18 10:20 51°22.807 3°12.182 15 13 8.4 101530 82
2004-11-18 10:21 51°22.899 3°11.82 15 13 8.2 101520 84
2004-11-18 10:23 51°23.011 3°11.378 15.6 11 8 101540 85
2004-11-18 10:24 51°23.112 3°10.979 15.5 9 8 101520 86
2004-11-18 10:25 51°23.23 3°10.572 15.2 9 7.9 101500 85
2004-11-18 10:27 51°23.568 3°10.129 14.7 353 8 101510 85
2004-11-18 10:28 51°23.807 3°9.859 13.9 351 8.1 101510 84
2004-11-18 10:29 51°23.995 3°9.658 13.3 351 8.1 101500 84
2004-11-18 10:30 51°24.179 3°9.402 14.6 354 8.1 101490 83
2004-11-18 10:32 51°24.262 3°8.941 13.5 17 8.2 101510 84
2004-11-18 10:32 51°24.278 3°8.577 14.1 19 8.2 101500 83
2004-11-18 10:34 51°24.306 3°8.122 12.8 17 8.3 101510 83
2004-11-18 10:36 51°24.35 3°7.405 13.5 10 8.2 101490 83
2004-11-18 10:37 51°24.375 3°7.035 12.6 13 8.2 101490 83
2004-11-18 10:38 51°24.399 3°6.649 14.1 16 8.2 101490 83
2004-11-18 10:39 51°24.428 3°6.274 12.1 9 8.2 101500 83
2004-11-18 10:40 51°24.46 3°5.738 13.5 11 8.2 101490 84
2004-11-18 10:41 51°24.492 3°5.369 12.5 7 8.2 101490 84
2004-11-18 10:42 51°24.565 3°4.966 13.1 5 8.2 101480 84
2004-11-18 10:44 51°24.663 3°4.461 13.3 8 8.3 101480 84
2004-11-18 10:45 51°24.724 3°4.093 13.3 9 8.2 101490 83
2004-11-18 10:46 51°24.772 3°3.682 11.7 7 8.2 101490 84
2004-11-18 10:47 51°24.8 3°3.309 12.1 11 8.3 101480 84
2004-11-18 10:48 51°24.819 3°2.93 12.8 3 8.3 101490 84
2004-11-18 10:49 51°24.837 3°2.489 12.1 11 8.3 101490 84
2004-11-18 10:50 51°24.851 3°2.104 12.7 17 8.3 101480 84
2004-11-18 10:51 51°24.844 3°1.546 12.6 10 8.4 101480 84
2004-11-18 10:53 51°24.883 3°0.919 13.5 11 8.4 101480 83
2004-11-18 10:54 51°24.898 3°0.494 14.1 16 8.4 101480 83
2004-11-18 10:55 51°24.919 2°59.907 13.6 17 8.3 101470 81
2004-11-18 10:57 51°24.935 2°59.468 12.9 15 8.3 101460 80
2004-11-18 10:58 51°24.947 2°59.098 12.8 17 8.3 101470 80
2004-11-18 10:59 51°24.96 2°58.702 12.1 15 8.3 101460 79
2004-11-18 11:01 51°24.939 2°57.838 14 17 8.3 101450 79
2004-11-18 11:03 51°25.009 2°57.085 11.3 8 8.3 101430 79
2004-11-18 11:05 51°25.054 2°56.526 12.9 20 8.3 101450 80
2004-11-18 11:06 51°25.084 2°56.148 13.1 10 8.3 101430 80
2004-11-18 11:07 51°25.124 2°55.652 13.3 12 8.3 101440 80
2004-11-18 11:08 51°25.158 2°55.191 13.2 7 8.3 101430 81
2004-11-18 11:10 51°25.202 2°54.662 12.4 12 8.3 101420 81
2004-11-18 11:11 51°25.235 2°54.24 12.7 7 8.3 101410 82
2004-11-18 11:12 51°25.266 2°53.876 14 6 8.3 101420 82
2004-11-18 11:13 51°25.298 2°53.477 12.8 16 8.3 101440 82
2004-11-18 11:14 51°25.328 2°53.105 12.3 12 8.4 101430 83
2004-11-18 11:15 51°25.37 2°52.544 13.8 17 8.4 101430 84
2004-11-18 11:16 51°25.406 2°52.054 13.3 11 8.3 101420 83
2004-11-18 11:17 51°25.438 2°51.676 13.5 11 8.2 101430 84
2004-11-18 11:18 51°25.484 2°51.303 12.5 9 8.2 101430 83
2004-11-18 11:19 51°25.535 2°50.955 14.5 17 8.1 101440 83
2004-11-18 11:20 51°25.594 2°50.563 14.3 11 8.2 101430 83
2004-11-18 11:21 51°25.649 2°50.209 13.5 9 8.1 101420 81
2004-11-18 11:23 51°25.709 2°49.814 14.7 15 8.1 101410 81
2004-11-18 11:24 51°25.778 2°49.413 14.3 10 8.2 101430 81
2004-11-18 11:25 51°25.841 2°49.051 13.5 7 8.2 101430 81
2004-11-18 11:26 51°25.911 2°48.65 12.3 351 8.3 101430 82
2004-11-18 11:27 51°26.004 2°48.6 8.9 304 8.2 101410 81
2004-11-18 11:28 51°26.029 2°48.606 4.2 252 8.2 101430 82
2004-11-18 11:29 51°26.019 2°48.609 3.8 252 8.2 101450 82
2004-11-18 11:31 51°25.998 2°48.596 5.4 260 8.1 101440 81
2004-11-18 11:33 51°25.978 2°48.582 7.1 259 8.2 101450 82
2004-11-18 11:34 51°25.961 2°48.57 8.1 265 8.2 101440 83
2004-11-18 11:36 51°25.969 2°48.558 6.8 323 8.2 101420 83
2004-11-18 11:37 51°25.943 2°48.404 6.3 65 8.2 101410 83
2004-11-18 11:38 51°25.786 2°48.243 11 47 8.2 101400 83
2004-11-18 11:39 51°25.545 2°47.897 10.5 49 8.1 101390 83
2004-11-18 11:41 51°25.283 2°47.521 11.8 45 8.1 101370 83
2004-11-18 11:42 51°25.016 2°47.135 11.6 54 8 101370 83
2004-11-18 11:44 51°24.701 2°46.679 11.4 52 8 101350 84
2004-11-18 11:46 51°24.283 2°46.072 10.2 45 8 101370 84
2004-11-18 11:47 51°24.099 2°45.796 11.2 48 8 101360 84
2004-11-18 11:48 51°23.895 2°45.498 9.9 34 8 101350 85
2004-11-18 11:49 51°23.676 2°45.177 13.1 49 8 101360 85
2004-11-18 11:51 51°23.431 2°44.812 11.3 51 7.9 101350 85
2004-11-18 11:52 51°23.208 2°44.482 11.7 45 7.9 101360 86
2004-11-18 11:53 51°23.015 2°44.201 9.1 41 7.9 101350 86
2004-11-18 11:54 51°22.763 2°43.835 12.5 41 7.9 101340 87
2004-11-18 11:56 51°22.486 2°43.43 11.2 55 7.8 101350 87
2004-11-18 11:57 51°22.229 2°43.056 10.3 36 7.8 101360 88
2004-11-18 11:59 51°21.915 2°42.604 11.4 52 7.7 101340 89
2004-11-18 12:00 51°21.732 2°42.334 10.2 43 7.7 101350 89
2004-11-18 12:01 51°21.513 2°42.02 10.2 49 7.6 101350 89
2004-11-18 12:02 51°21.329 2°41.759 10.6 41 7.6 101350 90
2004-11-18 12:03 51°21.147 2°41.5 9.1 39 7.6 101340 90
2004-11-18 12:04 51°20.964 2°41.233 8.3 26 7.6 101350 91
2004-11-18 12:05 51°20.747 2°40.932 8.6 35 7.6 101350 91
2004-11-18 12:06 51°20.563 2°40.672 9.6 42 7.5 101330 92
2004-11-18 12:07 51°20.381 2°40.406 9.7 40 7.6 101360 92
2004-11-18 12:09 51°20.113 2°40.019 9.6 44 7.5 101340 92
2004-11-18 12:10 51°19.919 2°39.734 8.6 40 7.5 101350 92
2004-11-18 12:11 51°19.649 2°39.406 10.1 39 7.6 101340 93
2004-11-18 12:12 51°19.428 2°39.14 9.9 48 7.5 101350 93
2004-11-18 12:13 51°19.217 2°38.879 9 47 7.5 101340 93
2004-11-18 12:14 51°18.981 2°38.629 7.4 36 7.5 101340 93
2004-11-18 12:16 51°18.765 2°38.416 7.4 44 7.5 101350 94
2004-11-18 12:17 51°18.488 2°38.145 7.4 27 7.6 101340 94
2004-11-18 12:18 51°18.206 2°37.864 8 33 7.6 101360 94
2004-11-18 12:19 51°17.981 2°37.639 8 37 7.6 101340 95
2004-11-18 12:20 51°17.714 2°37.362 8.9 37 7.6 101350 95
2004-11-18 12:22 51°17.474 2°37.121 8.3 31 7.6 101340 95
2004-11-18 12:23 51°17.263 2°36.911 7.9 41 7.6 101340 95
2004-11-18 12:24 51°17.088 2°36.826 3.5 61 7.7 101340 95
2004-11-18 12:25 51°16.943 2°36.839 2.1 97 7.7 101340 95
2004-11-18 12:26 51°16.863 2°36.807 1.8 84 7.7 101350 96
2004-11-18 12:27 51°16.754 2°36.773 2.5 77 7.7 101340 96
2004-11-18 12:28 51°16.645 2°36.757 2.2 106 7.8 101340 96
2004-11-18 12:29 51°16.61 2°36.734 3.4 134 7.8 101340 96
2004-11-18 12:31 51°16.597 2°36.701 3.1 107 7.8 101330 96
2004-11-18 12:32 51°16.572 2°36.666 3.4 112 7.9 101320 96
2004-11-18 12:33 51°16.545 2°36.634 2.2 120 7.9 101330 96
2004-11-18 12:34 51°16.511 2°36.591 3.1 113 7.9 101320 96
2004-11-18 12:35 51°16.484 2°36.551 4.5 96 7.9 101320 96
2004-11-18 12:37 51°16.425 2°36.502 3 92 7.9 101320 96
2004-11-18 12:38 51°16.32 2°36.502 2.9 63 8 101320 96
2004-11-18 12:39 51°16.107 2°36.572 5.9 39 7.9 101310 96
2004-11-18 12:40 51°15.864 2°36.667 7 41 8 101310 97
2004-11-18 12:41 51°15.646 2°36.788 7.7 47 8 101310 97
2004-11-18 12:42 51°15.428 2°36.899 8 60 7.9 101300 97
2004-11-18 12:43 51°15.208 2°37.018 7.2 56 7.8 101300 96
2004-11-18 12:44 51°14.958 2°37.214 5.9 66 7.8 101300 97
2004-11-18 12:45 51°14.817 2°37.506 3.5 60 7.8 101300 96
2004-11-18 12:46 51°14.697 2°37.798 4 38 7.8 101290 97
2004-11-18 12:47 51°14.569 2°38.088 4.5 64 7.9 101290 97
2004-11-18 12:48 51°14.437 2°38.367 4.4 44 7.9 101300 97
2004-11-18 12:49 51°14.271 2°38.633 6.2 58 7.9 101290 97
2004-11-18 12:50 51°14.104 2°38.884 4.5 37 7.9 101290 97
2004-11-18 12:51 51°13.88 2°39.088 7.6 53 8 101290 97
2004-11-18 12:52 51°13.642 2°39.095 9.9 41 7.9 101280 97
2004-11-18 12:53 51°13.419 2°38.921 10.5 29 7.8 101260 97
2004-11-18 12:55 51°13.152 2°38.627 10.4 24 7.9 101260 97
2004-11-18 12:56 51°12.951 2°38.411 10.4 25 7.9 101270 97
2004-11-18 12:57 51°12.745 2°38.2 9.8 32 7.9 101250 97
2004-11-18 12:58 51°12.516 2°37.975 10 32 8 101270 97
2004-11-18 12:59 51°12.307 2°37.767 9.1 32 7.9 101260 97
2004-11-18 13:00 51°12.093 2°37.561 9.2 30 8 101260 97
2004-11-18 13:01 51°11.892 2°37.361 10.2 33 8 101250 97
2004-11-18 13:02 51°11.667 2°37.125 9.2 27 7.9 101240 97
2004-11-18 13:03 51°11.386 2°36.841 8.5 31 7.9 101250 97
2004-11-18 13:04 51°11.143 2°36.586 8.9 30 7.9 101250 97
2004-11-18 13:06 51°10.863 2°36.299 8.4 31 7.9 101250 97
2004-11-18 13:07 51°10.557 2°35.991 8.8 24 8 101240 97
2004-11-18 13:08 51°10.326 2°35.833 8.5 36 8.1 101240 97
2004-11-18 13:10 51°10.016 2°35.732 6.5 32 8.1 101250 97
2004-11-18 13:11 51°9.757 2°35.759 5.6 37 8.1 101230 97
2004-11-18 13:12 51°9.594 2°35.978 4.3 34 8.2 101230 97
2004-11-18 13:13 51°9.6 2°36.39 3.3 351 8.2 101240 97
2004-11-18 13:14 51°9.672 2°36.708 3.7 349 8.2 101240 97
2004-11-18 13:15 51°9.744 2°37.015 3.4 6 8.2 101240 97
2004-11-18 13:16 51°9.839 2°37.368 2.9 18 8.2 101210 97
2004-11-18 13:17 51°9.921 2°37.682 3.4 359 8.2 101230 97
2004-11-18 13:19 51°10.06 2°38.152 3.6 349 8.2 101230 97
2004-11-18 13:20 51°10.14 2°38.474 3.6 350 8.2 101230 97
2004-11-18 13:21 51°10.257 2°38.942 4.8 356 8.2 101210 97
2004-11-18 13:22 51°10.362 2°39.384 4.4 359 8.2 101210 97
2004-11-18 13:24 51°10.481 2°39.858 4.5 356 8.2 101210 97
2004-11-18 13:25 51°10.583 2°40.267 5.2 337 8.1 101200 97
2004-11-18 13:26 51°10.651 2°40.603 4.4 350 8.1 101200 97
2004-11-18 13:27 51°10.722 2°40.965 4.5 349 8.1 101200 97
2004-11-18 13:29 51°10.845 2°41.429 5.4 347 8 101200 97
2004-11-18 13:30 51°10.976 2°41.778 4.5 327 8 101190 97
2004-11-18 13:31 51°11.069 2°41.978 3.8 290 8 101200 97
2004-11-18 13:33 51°11.082 2°42.015 3 211 8 101200 97
2004-11-18 13:34 51°11.074 2°42.033 3 215 8 101200 97
2004-11-18 13:35 51°11.068 2°42.05 3.1 232 7.9 101200 97
2004-11-18 13:36 51°11.063 2°42.078 3.3 230 7.9 101200 97
2004-11-18 13:37 51°11.064 2°42.099 3 245 7.9 101190 97
2004-11-18 13:38 51°11.067 2°42.121 2.4 255 8 101200 97
2004-11-18 13:39 51°11.076 2°42.139 2.4 255 8 101200 97
2004-11-18 13:40 51°11.086 2°42.151 3.7 265 7.9 101190 97
2004-11-18 13:41 51°11.102 2°42.163 3.2 273 8 101200 97
2004-11-18 13:43 51°11.148 2°42.294 1.2 29 8 101190 97
2004-11-18 13:44 51°11.135 2°42.607 4.3 359 8 101180 97
2004-11-18 13:45 51°11.132 2°43.072 3.8 358 8 101180 97
2004-11-18 13:46 51°11.138 2°43.465 4.3 350 8.1 101170 98
2004-11-18 13:47 51°11.181 2°43.889 3.7 10 8 101160 97
2004-11-18 13:48 51°11.253 2°44.245 4.9 343 8 101160 97
2004-11-18 13:50 51°11.346 2°44.682 4 355 8 101170 98
2004-11-18 13:51 51°11.415 2°45.033 3.9 353 8 101170 98
2004-11-18 13:52 51°11.488 2°45.426 3.9 342 7.9 101170 98
2004-11-18 13:53 51°11.564 2°45.824 4.6 344 7.9 101170 98
2004-11-18 13:55 51°11.663 2°46.212 5 340 8 101160 98
2004-11-18 13:56 51°11.752 2°46.55 4.3 339 8 101160 98
2004-11-18 13:57 51°11.847 2°46.897 3.7 344 7.9 101170 98
2004-11-18 13:58 51°11.952 2°47.289 3.9 340 7.9 101160 98
2004-11-18 13:59 51°12.051 2°47.669 4.2 342 7.9 101140 98
2004-11-18 14:00 51°12.156 2°48.073 4.6 330 7.9 101160 98
2004-11-18 14:02 51°12.273 2°48.431 4.7 336 7.9 101150 98
2004-11-18 14:03 51°12.382 2°48.731 4.2 330 7.9 101120 98
2004-11-18 14:04 51°12.504 2°49.059 4.3 342 7.9 101130 98
2004-11-18 14:05 51°12.63 2°49.403 4.1 336 7.9 101140 98
2004-11-18 14:06 51°12.739 2°49.708 4.6 336 7.9 101130 98
2004-11-18 14:07 51°12.856 2°50.038 5.2 331 7.9 101120 98
2004-11-18 14:08 51°12.962 2°50.334 4.3 342 7.9 101130 98
2004-11-18 14:09 51°13.09 2°50.686 3.8 335 7.9 101130 98
2004-11-18 14:10 51°13.224 2°51.067 3.3 339 7.8 101130 98
2004-11-18 14:11 51°13.349 2°51.42 3.7 345 7.9 101110 98
2004-11-18 14:12 51°13.457 2°51.72 4.2 340 7.8 101120 98
2004-11-18 14:13 51°13.577 2°52.028 3.9 331 7.8 101110 98
2004-11-18 14:14 51°13.692 2°52.322 3.6 340 7.8 101110 98
2004-11-18 14:16 51°13.851 2°52.736 3.8 348 7.8 101090 98
2004-11-18 14:17 51°13.985 2°53.074 4.7 340 7.8 101090 98
2004-11-18 14:18 51°14.123 2°53.422 4.2 331 7.8 101110 98
2004-11-18 14:19 51°14.246 2°53.739 3.8 354 7.9 101100 98
2004-11-18 14:21 51°14.336 2°54.233 3.9 347 7.9 101100 98
2004-11-18 14:22 51°14.388 2°54.572 3.2 358 7.8 101090 98
2004-11-18 14:23 51°14.398 2°54.894 3.4 18 7.8 101100 98